sat.trackr.live / text

‹ back to catalog

STARLINK-2604

NORAD 48374 · 2021-038X

PAYLOAD ACTIVE UNKNOWN

§ Identity

Operator
Country
US
Launch date
2021-05-04
Launch site
AFETR
Launch vehicle
Mass (kg)
RCS (m²)

Purposes: comms

External: N2YO · Heavens-Above · Gunter

§ Orbital elements

Epoch: 2026-05-25T00:01:00.245856Z

Period
94.01 min
Inclination
53.1610°
Eccentricity
0.0001176
Mean motion
15.31717121 rev/d
Perigee alt
469.9 km
Apogee alt
471.5 km
Semi-major
6,848.8 km
B*
5.2568e-5
RAAN
352.8608°
Arg perigee
93.4392°
Mean anomaly
266.6744°
Rev number
27,891

§ Raw data

STARLINK-26041 48374U 21038X   26145.00069729  .00001267  00000+0  52568-4 0  99962 48374  53.1610 352.8608 0001176  93.4392 266.6744 15.31717121278912

JSON: /api/v1/satellites/48374 · /tle

For live sub-satellite position, see the globe view (requires WebGL).

§ Visibility from observer

Set your observer location to see the next 7 days of passes ≥ 10°. The values pass through the URL so the page stays shareable.

No JS? Fill the form by hand. The geolocation button needs JavaScript.